CW0238 Weather Reports


Display with metric or nautical units.
time (UTC)temp
F
wind
direction
speed
MPH
gust
MPH
rain 1hr
in
rain 24hr
in
rain mn
in
humidity
%
barometer
mb
20260506091352 49 294 0.0 2.0 0.01 0.75 0.46 92 1009.0
20260506090851 50 321 0.0 3.0 0.01 0.75 0.46 92 1009.0
20260506090346 49 342 0.0 3.0 0.01 0.75 0.46 93 1009.0
20260506085848 49 215 0.0 0.0 0.01 0.75 0.46 92 1009.1
20260506085347 49 214 0.0 2.0 0.01 0.75 0.46 92 1009.2
20260506084841 50 214 0.0 2.0 0.01 0.75 0.46 92 1009.1
20260506083841 50 5 0.0 1.0 0.00 0.74 0.45 92 1008.3
20260506083338 50 19 0.0 3.0 0.00 0.74 0.45 92 1008.9
20260506082841 50 11 0.0 3.0 0.00 0.74 0.45 92 1009.1
20260506082609 50 19 0.0 2.0 0.00 0.74 0.45 92 1008.8
20260506082055 50 322 0.0 2.0 0.00 0.74 0.45 92 1008.7
20260506081335 50 28 0.0 2.0 0.00 0.74 0.45 92 1008.3
20260506080834 51 28 0.0 1.0 0.01 0.74 0.45 92 1008.0
20260506080335 51 5 0.0 1.0 0.01 0.74 0.45 92 1008.0
20260506073328 51 206 0.0 1.0 0.09 0.74 0.45 92 1007.7
20260506072327 51 32 0.0 9.0 0.12 0.74 0.45 92 1007.9
20260506072046 52 11 0.0 1.0 0.15 0.74 0.45 92 1007.5
20260506071320 52 338 0.0 3.0 0.15 0.74 0.45 92 1007.4
20260506070821 52 338 0.0 3.0 0.14 0.73 0.44 92 1007.4
20260506070318 52 223 0.0 4.0 0.13 0.72 0.44 92 1007.3
20260506062305 54 48 0.0 1.0 0.13 0.62 0.33 91 1007.1
20260506061802 54 300 0.0 1.0 0.11 0.59 0.30 92 1007.0
20260506061303 55 355 0.0 1.0 0.14 0.59 0.30 91 1006.8
20260506061021 55 355 0.0 0.0 0.17 0.59 0.30 92 1006.7
20260506060302 56 355 0.0 0.0 0.20 0.59 0.30 92 1006.7
20260506051255 59 202 0.0 0.0 0.15 0.45 0.16 94 1006.1
20260506050749 59 202 0.0 0.0 0.12 0.42 0.13 94 1006.1
20260506050248 59 202 0.0 0.0 0.10 0.39 0.10 94 1006.1
20260506044747 60 195 0.0 0.0 0.07 0.35 0.06 93 1006.1
20260506044503 60 195 0.0 0.0 0.07 0.35 0.06 93 1006.1
20260506043741 60 194 0.0 0.0 0.06 0.34 0.05 93 1006.1
20260506043241 60 195 0.0 0.0 0.04 0.32 0.03 93 1006.1
20260506042738 60 199 0.0 0.0 0.03 0.31 0.02 93 1006.1
20260506042234 60 200 0.0 0.0 0.03 0.30 0.01 93 1005.8
20260506041735 60 200 0.0 0.0 0.03 0.30 0.01 93 1005.5
20260506041233 60 200 0.0 0.0 0.03 0.30 0.01 93 1005.5
20260506040728 60 200 0.0 0.0 0.03 0.30 0.01 94 1005.5
20260506040228 60 200 0.0 0.0 0.02 0.29 0.00 93 1005.6
20260506035729 60 199 0.0 0.0 0.02 0.29 0.29 94 1005.6
20260506035229 60 199 0.0 0.0 0.02 0.29 0.29 94 1005.6
20260506034729 60 199 0.0 0.0 0.03 0.28 0.29 94 1005.7
20260506034230 60 199 0.0 1.0 0.03 0.28 0.28 94 1005.8
20260506033950 60 199 0.0 1.0 0.05 0.28 0.28 94 1005.9
20260506033226 60 199 0.0 1.0 0.06 0.28 0.28 93 1005.9
20260506032723 60 199 0.0 1.0 0.06 0.28 0.28 93 1006.1
20260506032218 60 106 0.0 0.0 0.06 0.27 0.27 93 1006.2
20260506031937 60 106 0.0 0.0 0.06 0.27 0.27 93 1006.2
20260506031215 60 106 0.0 0.0 0.06 0.27 0.27 93 1006.4
20260506030710 60 80 0.0 0.0 0.06 0.27 0.27 94 1006.6
20260506030208 60 79 0.0 0.0 0.06 0.27 0.27 94 1006.6
20260506025707 61 49 0.0 0.0 0.06 0.27 0.27 94 1006.7
20260506025204 61 49 0.0 0.0 0.06 0.27 0.27 94 1006.8
20260506024704 61 49 0.0 0.0 0.05 0.25 0.26 94 1006.8
20260506024203 61 49 0.0 0.0 0.05 0.25 0.25 94 1006.9
20260506023659 61 50 0.0 0.0 0.03 0.23 0.23 94 1007.0
20260506023419 61 50 0.0 0.0 0.02 0.22 0.22 94 1007.1
20260506022655 61 50 0.0 0.0 0.02 0.22 0.22 94 1007.0
20260506022152 61 47 0.0 1.0 0.01 0.21 0.21 94 1007.1
20260506021653 61 47 0.0 1.0 0.01 0.21 0.21 94 1007.0
20260506021149 61 150 0.0 5.0 0.01 0.21 0.21 94 1007.1
20260506020647 61 159 0.0 5.0 0.01 0.21 0.21 94 1007.1
20260506020408 61 130 0.0 6.0 0.01 0.21 0.21 94 1007.0
20260506015646 61 188 0.0 6.0 0.01 0.21 0.21 94 1007.0
20260506015412 61 90 0.0 2.0 0.01 0.21 0.21 94 1006.8
20260506014647 61 157 0.0 2.0 0.00 0.20 0.21 94 1006.8
20260506014144 61 157 0.0 2.0 0.00 0.20 0.20 94 1006.8
20260506013913 61 227 0.0 2.0 0.00 0.20 0.20 94 1006.5
20260506013142 62 84 0.0 0.0 0.00 0.20 0.20 94 1006.6
20260506012637 62 84 0.0 0.0 0.00 0.20 0.20 94 1006.1
20260506012140 62 84 0.0 0.0 0.00 0.20 0.20 94 1006.3
20260506011634 62 84 0.0 0.0 0.00 0.20 0.20 94 1006.4
20260506011358 62 84 0.0 0.0 0.00 0.20 0.20 94 1006.4
20260506010633 62 84 0.0 0.0 0.00 0.20 0.20 94 1006.4
20260506010134 62 84 0.0 0.0 0.00 0.20 0.20 94 1006.3
20260506005632 62 84 0.0 0.0 0.00 0.20 0.20 94 1006.1
20260506005132 62 84 0.0 0.0 0.00 0.20 0.20 94 1006.1
20260506004632 62 84 0.0 0.0 0.00 0.20 0.20 94 1006.2
20260506004130 62 84 0.0 0.0 0.00 0.20 0.20 94 1006.1
20260506003633 62 84 0.0 0.0 0.01 0.20 0.20 94 1006.1
20260506003129 62 84 0.0 0.0 0.01 0.20 0.20 94 1006.1
20260506002901 62 84 0.0 1.0 0.01 0.20 0.20 94 1006.1
20260506002128 62 84 0.0 1.0 0.04 0.20 0.20 94 1006.1
20260506001626 62 84 0.0 0.0 0.06 0.20 0.20 94 1006.2
20260506001126 62 84 0.0 0.0 0.07 0.20 0.20 94 1006.3
20260506000841 62 84 0.0 0.0 0.07 0.20 0.20 94 1006.4
20260506000125 62 84 0.0 0.0 0.07 0.20 0.20 94 1006.3
20260505235621 62 84 0.0 0.0 0.07 0.20 0.20 94 1006.2
20260505235120 63 84 0.0 0.0 0.07 0.20 0.20 94 1006.2
20260505234621 63 84 0.0 0.0 0.07 0.20 0.20 94 1006.3
20260505234120 63 84 0.0 0.0 0.07 0.20 0.20 94 1006.3
20260505233623 64 84 0.0 0.0 0.07 0.19 0.19 94 1006.3
20260505233116 64 84 0.0 0.0 0.08 0.19 0.19 94 1006.4
20260505232617 64 84 0.0 0.0 0.08 0.19 0.19 94 1006.5
20260505232115 64 84 0.0 0.0 0.05 0.16 0.16 94 1006.5
20260505231612 64 84 0.0 0.0 0.04 0.14 0.14 94 1006.9
20260505231113 64 84 0.0 0.0 0.04 0.13 0.13 94 1006.8
20260505230613 64 84 0.0 0.0 0.05 0.13 0.13 94 1006.7
20260505230113 64 84 0.0 0.0 0.05 0.13 0.13 94 1006.3
20260505225609 64 84 0.0 0.0 0.05 0.13 0.13 94 1006.6
20260505225109 64 83 0.0 0.0 0.06 0.13 0.13 94 1006.5
20260505224608 64 83 0.0 1.0 0.06 0.13 0.13 94 1006.6
20260505224108 64 83 0.0 1.0 0.06 0.13 0.13 94 1006.7
20260505223835 64 84 0.0 0.0 0.05 0.12 0.12 93 1006.4
20260505223337 64 84 0.0 0.0 0.04 0.11 0.11 93 1006.9
20260505222603 64 84 0.0 0.0 0.04 0.11 0.11 93 1006.8
20260505222059 64 84 0.0 0.0 0.04 0.11 0.11 93 1006.9
20260505221557 64 84 0.0 0.0 0.03 0.10 0.10 93 1006.7
20260505221317 64 84 0.0 1.0 0.02 0.09 0.10 92 1006.7
20260505220555 65 84 0.0 1.0 0.01 0.08 0.08 92 1007.1
20260505220107 65 84 0.0 0.0 0.01 0.08 0.08 93 1006.6
20260505215554 65 84 0.0 0.0 0.01 0.08 0.08 92 1006.4
20260505215054 65 84 0.0 0.0 0.00 0.07 0.07 93 1006.5
20260505214550 65 84 0.0 0.0 0.00 0.07 0.07 93 1006.4
20260505214308 65 84 0.0 0.0 0.00 0.07 0.07 93 1006.4
20260505213550 65 84 0.0 0.0 0.00 0.07 0.07 93 1006.5
20260505213314 65 84 0.0 0.0 0.00 0.07 0.07 93 1006.7
20260505212550 64 84 0.0 0.0 0.00 0.07 0.07 93 1006.7
20260505211545 64 84 0.0 0.0 0.00 0.07 0.07 93 1006.9
20260505211045 64 84 0.0 0.0 0.00 0.07 0.07 93 1006.9
20260505210808 64 84 0.0 0.0 0.00 0.07 0.07 93 1007.1
20260505210055 64 84 0.0 0.0 0.00 0.07 0.07 93 1007.1
20260505205537 64 84 0.0 0.0 0.00 0.07 0.07 93 1007.2
20260505205035 64 84 0.0 0.0 0.00 0.07 0.07 93 1007.2
20260505204532 64 84 0.0 0.0 0.00 0.07 0.07 93 1007.3
20260505204029 64 84 0.0 0.0 0.00 0.07 0.07 93 1007.4
20260505203530 64 84 0.0 0.0 0.00 0.07 0.07 93 1007.5
20260505203028 64 84 0.0 0.0 0.00 0.07 0.07 92 1007.6
20260505202529 64 84 0.0 0.0 0.00 0.07 0.07 92 1007.6
20260505202026 64 84 0.0 0.0 0.00 0.07 0.07 92 1007.7
20260505201025 64 84 0.0 0.0 0.01 0.07 0.07 93 1007.8
20260505200527 64 84 0.0 0.0 0.02 0.07 0.07 93 1007.8
20260505200023 64 84 0.0 0.0 0.03 0.07 0.07 92 1007.9
20260505195523 64 84 0.0 0.0 0.03 0.07 0.07 92 1008.1
20260505195020 63 84 0.0 0.0 0.05 0.07 0.07 92 1008.1
20260505194519 63 84 0.0 0.0 0.06 0.07 0.07 92 1008.1
20260505194016 63 84 0.0 0.0 0.06 0.07 0.07 92 1008.2
20260505193016 63 84 0.0 0.0 0.07 0.07 0.07 91 1008.3
20260505192516 63 84 0.0 0.0 0.07 0.07 0.07 90 1008.4
20260505192011 63 84 0.0 0.0 0.07 0.07 0.07 90 1008.5
20260505191511 63 84 0.0 0.0 0.06 0.06 0.06 89 1008.5
20260505191010 64 84 0.0 0.0 0.06 0.06 0.06 90 1008.7
20260505190507 64 84 0.0 0.0 0.05 0.05 0.05 88 1008.8
20260505190230 64 84 0.0 0.0 0.04 0.04 0.04 89 1008.8
20260505185503 64 83 0.0 0.0 0.04 0.04 0.04 89 1008.7
20260505185230 65 83 0.0 0.0 0.02 0.02 0.03 86 1008.6
20260505184500 65 83 0.0 0.0 0.01 0.01 0.01 85 1008.9
20260505183959 65 84 0.0 0.0 0.01 0.01 0.01 82 1008.8
20260505183459 65 83 0.0 1.0 0.00 0.00 0.00 81 1008.8
20260505182958 66 83 0.0 1.0 0.00 0.00 0.00 78 1008.9
20260505182454 66 304 0.0 1.0 0.00 0.00 0.00 77 1008.9
20260505181957 66 317 0.0 1.0 0.00 0.00 0.00 78 1009.0
20260505181451 67 317 0.0 3.0 0.00 0.00 0.00 75 1009.0
20260505180949 67 221 0.0 3.0 0.00 0.00 0.00 74 1009.1
20260505180449 67 209 0.0 6.0 0.00 0.00 0.00 74 1008.9
20260505175949 68 210 0.0 6.0 0.00 0.00 0.00 72 1008.9
20260505175448 69 250 0.0 4.0 0.00 0.00 0.00 71 1009.0
20260505174947 69 112 0.0 4.0 0.00 0.00 0.00 69 1008.9
20260505174448 69 208 0.0 4.0 0.00 0.00 0.00 67 1009.0
20260505173947 70 126 1.0 4.0 0.00 0.00 0.00 66 1008.9
20260505173712 71 80 1.0 4.0 0.00 0.00 0.00 67 1008.9
20260505172941 71 322 1.0 4.0 0.00 0.00 0.00 64 1008.9
20260505172440 71 140 0.0 4.0 0.00 0.00 0.00 67 1008.7
20260505171937 71 270 0.0 4.0 0.00 0.00 0.00 67 1008.9
20260505171434 70 156 0.0 1.0 0.00 0.00 0.00 67 1008.9
20260505170931 69 132 0.0 4.0 0.00 0.00 0.00 67 1008.9
20260505165927 69 150 1.0 5.0 0.00 0.00 0.00 67 1009.2
20260505165424 69 231 0.0 5.0 0.00 0.00 0.00 68 1009.0
20260505164924 69 155 0.0 5.0 0.00 0.00 0.00 67 1009.0
20260505164426 68 138 0.0 5.0 0.00 0.00 0.00 67 1009.2
20260505163922 68 107 0.0 4.0 0.00 0.00 0.00 67 1009.3
20260505163642 68 172 0.0 3.0 0.00 0.00 0.00 67 1009.5
20260505162917 69 217 0.0 3.0 0.00 0.00 0.00 67 1009.6
20260505162417 69 165 0.0 3.0 0.00 0.00 0.00 67 1009.6
20260505162138 69 160 0.0 2.0 0.00 0.00 0.00 66 1009.5
20260505161419 69 171 0.0 7.0 0.00 0.00 0.00 66 1009.6
20260505160917 69 221 1.0 7.0 0.00 0.00 0.00 67 1009.6
20260505160429 68 184 0.0 6.0 0.00 0.00 0.00 66 1009.6
20260505152912 67 200 0.0 4.0 0.00 0.00 0.00 67 1009.6
20260505152411 67 166 0.0 4.0 0.00 0.00 0.00 67 1009.6
20260505151916 67 221 0.0 1.0 0.00 0.00 0.00 67 1009.5
20260505151410 67 159 0.0 2.0 0.00 0.00 0.00 68 1009.5
20260505150910 67 174 0.0 2.0 0.00 0.00 0.00 67 1009.5
20260505150411 67 162 0.0 2.0 0.00 0.00 0.00 67 1009.5
20260505150135 67 148 0.0 1.0 0.00 0.00 0.00 67 1009.5
20260505140357 65 211 0.0 1.0 0.00 0.00 0.00 67 1009.5
20260505124839 63 355 0.0 0.0 0.00 0.00 0.00 69 1009.6
20260505124603 62 355 0.0 0.0 0.00 0.00 0.00 71 1009.7
20260505124106 62 355 0.0 0.0 0.00 0.00 0.00 74 1009.7
20260505123334 62 355 0.0 0.0 0.00 0.00 0.00 73 1010.1
20260505123054 62 355 0.0 0.0 0.00 0.01 0.00 74 1010.1
20260505122340 62 355 0.0 0.0 0.00 0.01 0.00 74 1010.1
20260505121828 62 355 0.0 0.0 0.00 0.01 0.00 74 1010.1
20260505121325 62 355 0.0 0.0 0.00 0.01 0.00 74 1010.0
20260505121048 62 355 0.0 0.0 0.00 0.01 0.00 72 1010.0
20260505120545 62 355 0.0 0.0 0.00 0.01 0.00 72 1009.8
20260505115821 62 355 0.0 0.0 0.00 0.01 0.00 72 1009.8
20260505115319 63 355 0.0 0.0 0.00 0.02 0.00 71 1009.7
20260505114817 63 355 0.0 0.0 0.00 0.02 0.00 70 1009.6
20260505114544 63 355 0.0 0.0 0.00 0.03 0.00 69 1009.5
20260505114039 63 355 0.0 0.0 0.00 0.03 0.00 70 1009.5
20260505113325 62 355 0.0 0.0 0.00 0.03 0.00 70 1009.5
20260505112811 62 355 0.0 0.0 0.00 0.03 0.00 69 1009.5
20260505112311 62 355 0.0 0.0 0.00 0.04 0.00 70 1009.5
20260505111811 62 355 0.0 0.0 0.00 0.04 0.00 71 1009.5
20260505111303 63 355 0.0 0.0 0.00 0.05 0.00 69 1009.4
20260505110801 63 355 0.0 0.0 0.00 0.05 0.00 68 1009.3
20260505110305 63 355 0.0 0.0 0.00 0.05 0.00 67 1009.4
20260505101751 64 355 0.0 0.0 0.00 0.05 0.00 66 1010.0
20260505101249 63 9 0.0 0.0 0.00 0.05 0.00 66 1010.0
20260505101025 63 9 0.0 0.0 0.00 0.05 0.00 65 1009.6
20260505100248 63 9 0.0 0.0 0.00 0.05 0.00 64 1009.3
20260505095743 64 9 0.0 1.0 0.00 0.05 0.00 64 1009.1
20260505095242 64 5 0.0 1.0 0.00 0.05 0.00 64 1009.0
20260505094743 63 84 0.0 0.0 0.00 0.05 0.00 64 1008.7
20260505093737 64 84 0.0 0.0 0.00 0.05 0.00 63 1008.4
20260505093238 65 84 0.0 0.0 0.00 0.05 0.00 61 1008.3
20260505092736 65 84 0.0 0.0 0.00 0.05 0.00 61 1008.3
20260505092450 64 84 0.0 0.0 0.00 0.05 0.00 61 1008.3
20260505091733 65 84 0.0 1.0 0.00 0.06 0.00 61 1008.2